Flag for Canada Weather past 2 weeks in Gander, Newfoundland and Labrador, Canada

Now
21 °F

Broken clouds.


Feels Like: 8 °F
Forecast: 14 / 23 °F
Wind: 14 mph from Northwest

Location: Gander Int. Airport

Current Time: Feb 27, 2015 at 1:29:58 PM

Latest Report: Feb 27, 2015 at 12:30 PM


Visibility: 20 mi

Pressure: 29.83 "Hg

Humidity: 54%

Dew point: 7 °F

Location of GanderLocation

Historic Weather in Gander — Graph

°F

Gander temperature yesterday

Maximum temperature yesterday: 30 °F (at 4:30 AM)
Minimum temperature yesterday: 18 °F (at 9:30 PM)
Average temperature yesterday: 24 °F

Past Weeks' High & Low Weather Summary

 TemperatureHumidityPressure
High39 °F (Feb 20, 11:30 AM)100% (Feb 13, 1:30 PM)30.45 "Hg (Feb 13, 1:30 PM)
Low1 °F (Feb 15, 7:30 AM)38% (Feb 20, 2:30 PM)28.58 "Hg (Feb 16, 10:30 PM)
Average20 °F82%29.66 "Hg
* Reported Feb 12 11:30 AM — Feb 27 11:30 AM, Gander, Weather by CustomWeather, © 2015

Note: Actual official high and low records may vary slightly from our data, if they occured in-between our weather recording intervals... More about our weather records

Advertising

Gander weather history for previous 24 hours

 ConditionsComfort  
Time TempWeatherWind HumidityBarometerVisibility
11:30 AM
Fri, Feb 27
21 °FBroken clouds.12 mph58%29.83 "Hg20 mi
10:30 AM19 °FBroken clouds.10 mph63%29.84 "Hg20 mi
9:30 AM18 °FBroken clouds.9 mph73%29.83 "Hg15 mi
8:30 AM16 °FBroken clouds.10 mph79%29.83 "Hg15 mi
7:30 AM16 °FPartly sunny.8 mph79%29.82 "Hg20 mi
6:30 AM16 °FMostly cloudy.9 mph73%29.81 "Hg20 mi
5:30 AM16 °FOvercast.7 mph79%29.80 "Hg20 mi
4:30 AM16 °FMostly cloudy.8 mph79%29.79 "Hg20 mi
3:30 AM16 °FOvercast.7 mph79%29.79 "Hg20 mi
2:30 AM16 °FOvercast.9 mph79%29.82 "Hg20 mi
1:30 AM18 °FOvercast.10 mph68%29.83 "Hg20 mi
12:30 AM18 °FMostly cloudy.12 mph73%29.86 "Hg20 mi
11:30 PM
Thu, Feb 26
18 °FMostly cloudy.13 mph73%29.86 "Hg20 mi
10:30 PM18 °FPartly cloudy.14 mph73%29.87 "Hg20 mi
9:30 PM18 °FPassing clouds.13 mph73%29.87 "Hg20 mi
8:30 PM19 °FPartly cloudy.17 mph63%29.85 "Hg20 mi
7:30 PM21 °FPassing clouds.12 mph58%29.83 "Hg20 mi
6:30 PM23 °FPassing clouds.18 mph58%29.82 "Hg20 mi
5:30 PM25 °FSnow flurries. Partly cloudy.13 mph69%29.78 "Hg20 mi
4:30 PM27 °FScattered clouds.23 mph64%29.75 "Hg20 mi
3:30 PM28 °FScattered clouds.24 mph47%29.70 "Hg20 mi
2:30 PM28 °FPassing clouds.23 mph55%29.66 "Hg20 mi
1:30 PM28 °FLow level haze.30 mph55%29.60 "Hg20 mi
Weather by CustomWeather, © 2015

See weather overviewHow to use our weather pages